DCM228 KBUR-KLAS

Flight info

Callsign DCM228
Flight time 0h 57m
Altitude 27000
Route VNY3 DAG CRESO5
Aircraft B350/L-W/S

Departure

Time 2026-05-07 19:19
Airport Hollywood Burbank/Bob Hope Airport (KBUR)

Arrival

Time 2026-05-07 20:16
Airport Harry Reid International Airport (KLAS)
Time Latitude Longitude Altitude Speed Heading
2026-05-07 19:19 34.16973 -118.40616 5219 ft 189 kts 311°
2026-05-07 19:19 34.17868 -118.41804 5682 ft 190 kts 311°
2026-05-07 19:19 34.18750 -118.42977 6148 ft 191 kts 311°
2026-05-07 19:19 34.19644 -118.44173 6622 ft 191 kts 311°
2026-05-07 19:20 34.20529 -118.45359 7097 ft 191 kts 310°
2026-05-07 19:20 34.21233 -118.46696 7548 ft 190 kts 298°
2026-05-07 19:20 34.21875 -118.48113 7995 ft 191 kts 298°
2026-05-07 19:20 34.22296 -118.49596 8398 ft 190 kts 271°
2026-05-07 19:21 34.22224 -118.51174 8798 ft 191 kts 265°
2026-05-07 19:21 34.22116 -118.52779 9196 ft 192 kts 265°
2026-05-07 19:21 34.22066 -118.54391 9572 ft 193 kts 280°
2026-05-07 19:21 34.22696 -118.55788 9926 ft 196 kts 318°
2026-05-07 19:22 34.23806 -118.56752 10333 ft 197 kts 327°
2026-05-07 19:22 34.24975 -118.57610 10768 ft 197 kts 330°
2026-05-07 19:22 34.26175 -118.58411 11207 ft 196 kts 332°
2026-05-07 19:22 34.27382 -118.59155 11636 ft 195 kts 334°
2026-05-07 19:23 34.28599 -118.59863 12056 ft 194 kts 335°
2026-05-07 19:23 34.29817 -118.60535 12458 ft 194 kts 340°
2026-05-07 19:23 34.31146 -118.60612 12825 ft 192 kts 19°
2026-05-07 19:23 34.32199 -118.59659 13196 ft 192 kts 57°
2026-05-07 19:24 34.32832 -118.58256 13600 ft 191 kts 62°
2026-05-07 19:24 34.33442 -118.56852 13986 ft 189 kts 61°
2026-05-07 19:24 34.34067 -118.55429 14364 ft 189 kts 61°
2026-05-07 19:24 34.34681 -118.54044 14721 ft 188 kts 60°
2026-05-07 19:25 34.35290 -118.52653 15097 ft 188 kts 61°
2026-05-07 19:25 34.35919 -118.51243 15597 ft 194 kts 60°
2026-05-07 19:25 34.36575 -118.49805 16169 ft 196 kts 60°
2026-05-07 19:25 34.37253 -118.48354 16764 ft 198 kts 60°
2026-05-07 19:26 34.37939 -118.46918 17313 ft 199 kts 60°
2026-05-07 19:26 34.38640 -118.45484 17782 ft 199 kts 59°
2026-05-07 19:26 34.39361 -118.44041 18254 ft 199 kts 59°
2026-05-07 19:26 34.40081 -118.42628 18704 ft 198 kts 58°
2026-05-07 19:27 34.40818 -118.41212 19096 ft 198 kts 57°
2026-05-07 19:27 34.41558 -118.39821 19423 ft 195 kts 57°
2026-05-07 19:27 34.42291 -118.38468 19769 ft 191 kts 56°
2026-05-07 19:27 34.43016 -118.37151 20166 ft 187 kts 54°
2026-05-07 19:28 34.43844 -118.35955 20622 ft 182 kts 43°
2026-05-07 19:28 34.44747 -118.34916 20987 ft 182 kts 43°
2026-05-07 19:28 34.45708 -118.33830 21103 ft 196 kts 42°
2026-05-07 19:28 34.46754 -118.32652 21128 ft 215 kts 46°
2026-05-07 19:29 34.47717 -118.31170 21139 ft 234 kts 52°
2026-05-07 19:29 34.48733 -118.29536 21137 ft 250 kts 52°
2026-05-07 19:29 34.49814 -118.27799 21144 ft 262 kts 52°
2026-05-07 19:29 34.50938 -118.25995 21142 ft 272 kts 52°
2026-05-07 19:30 34.52093 -118.24141 21144 ft 280 kts 52°
2026-05-07 19:30 34.53288 -118.22223 21151 ft 287 kts 52°
2026-05-07 19:30 34.54511 -118.20256 21152 ft 293 kts 52°
2026-05-07 19:30 34.55759 -118.18249 21144 ft 298 kts 52°
2026-05-07 19:31 34.57014 -118.16232 21145 ft 301 kts 52°
2026-05-07 19:31 34.58276 -118.14198 21136 ft 303 kts 52°
2026-05-07 19:31 34.59562 -118.12127 21129 ft 304 kts 52°
2026-05-07 19:31 34.60828 -118.10087 21125 ft 305 kts 52°
2026-05-07 19:32 34.62123 -118.07997 21124 ft 306 kts 52°
2026-05-07 19:32 34.63419 -118.05942 21124 ft 306 kts 51°
2026-05-07 19:32 34.64421 -118.03677 21102 ft 310 kts 72°
2026-05-07 19:32 34.64578 -118.01081 21111 ft 316 kts 94°
2026-05-07 19:33 34.64091 -117.98448 21141 ft 318 kts 100°
2026-05-07 19:33 34.63942 -117.95841 21100 ft 312 kts 79°
2026-05-07 19:33 34.64379 -117.93243 21122 ft 311 kts 76°
2026-05-07 19:33 34.64784 -117.90651 21128 ft 311 kts 77°
2026-05-07 19:34 34.65144 -117.88088 21121 ft 311 kts 78°
2026-05-07 19:34 34.65633 -117.85558 21084 ft 308 kts 67°
2026-05-07 19:34 34.66115 -117.83003 21109 ft 311 kts 82°
2026-05-07 19:34 34.66302 -117.80423 21112 ft 311 kts 81°
2026-05-07 19:35 34.66522 -117.77797 21125 ft 312 kts 83°
2026-05-07 19:35 34.66783 -117.75171 21111 ft 310 kts 76°
2026-05-07 19:35 34.67253 -117.72632 21115 ft 309 kts 74°
2026-05-07 19:35 34.67754 -117.70072 21121 ft 309 kts 73°
2026-05-07 19:36 34.68274 -117.67499 21109 ft 309 kts 72°
2026-05-07 19:36 34.68926 -117.65006 21113 ft 308 kts 69°
2026-05-07 19:36 34.69590 -117.62508 21101 ft 308 kts 70°
2026-05-07 19:36 34.70245 -117.60010 21102 ft 308 kts 70°
2026-05-07 19:37 34.70896 -117.57515 21113 ft 307 kts 70°
2026-05-07 19:37 34.71541 -117.55036 21111 ft 307 kts 70°
2026-05-07 19:37 34.72187 -117.52548 21110 ft 307 kts 70°
2026-05-07 19:37 34.72837 -117.50043 21117 ft 307 kts 70°
2026-05-07 19:38 34.73476 -117.47579 21105 ft 307 kts 70°
2026-05-07 19:38 34.74118 -117.45094 21105 ft 307 kts 70°
2026-05-07 19:38 34.74756 -117.42628 21116 ft 307 kts 70°
2026-05-07 19:38 34.75400 -117.40131 21110 ft 307 kts 70°
2026-05-07 19:39 34.76045 -117.37633 21111 ft 308 kts 70°
2026-05-07 19:39 34.76681 -117.35164 21110 ft 308 kts 70°
2026-05-07 19:39 34.77312 -117.32632 21102 ft 308 kts 71°
2026-05-07 19:39 34.77924 -117.30170 21101 ft 308 kts 70°
2026-05-07 19:40 34.78557 -117.27659 21096 ft 308 kts 70°
2026-05-07 19:40 34.79184 -117.25191 21092 ft 308 kts 70°
2026-05-07 19:40 34.79824 -117.22696 21097 ft 308 kts 70°
2026-05-07 19:40 34.80458 -117.20212 21101 ft 308 kts 70°
2026-05-07 19:41 34.81091 -117.17736 21094 ft 308 kts 70°
2026-05-07 19:41 34.81727 -117.15247 21092 ft 308 kts 70°
2026-05-07 19:41 34.82359 -117.12765 21095 ft 308 kts 70°
2026-05-07 19:41 34.82989 -117.10293 21099 ft 308 kts 70°
2026-05-07 19:42 34.83623 -117.07801 21099 ft 308 kts 70°
2026-05-07 19:42 34.84253 -117.05324 21103 ft 308 kts 70°
2026-05-07 19:42 34.84888 -117.02828 21095 ft 308 kts 70°
2026-05-07 19:42 34.85524 -117.00324 21098 ft 308 kts 70°
2026-05-07 19:43 34.86146 -116.97873 21096 ft 307 kts 70°
2026-05-07 19:43 34.86778 -116.95380 21100 ft 307 kts 70°
2026-05-07 19:43 34.87412 -116.92883 21107 ft 307 kts 70°
2026-05-07 19:43 34.88041 -116.90395 21095 ft 307 kts 70°
2026-05-07 19:44 34.88673 -116.87895 21093 ft 307 kts 70°
2026-05-07 19:44 34.89300 -116.85416 21097 ft 307 kts 70°
2026-05-07 19:44 34.89922 -116.82954 21098 ft 307 kts 70°
2026-05-07 19:44 34.90551 -116.80459 21095 ft 307 kts 70°
2026-05-07 19:45 34.91179 -116.77964 21088 ft 307 kts 70°
2026-05-07 19:45 34.91808 -116.75468 21090 ft 308 kts 70°
2026-05-07 19:45 34.92436 -116.72970 21078 ft 308 kts 70°
2026-05-07 19:45 34.93064 -116.70473 21076 ft 308 kts 70°
2026-05-07 19:46 34.93694 -116.67963 21077 ft 308 kts 70°
2026-05-07 19:46 34.94313 -116.65492 21065 ft 308 kts 70°
2026-05-07 19:46 34.95034 -116.63052 21043 ft 307 kts 64°
2026-05-07 19:46 34.95887 -116.60676 21045 ft 307 kts 63°
2026-05-07 19:47 34.96746 -116.58280 21040 ft 306 kts 64°
2026-05-07 19:47 34.97599 -116.55903 21038 ft 306 kts 64°
2026-05-07 19:47 34.98457 -116.53536 21030 ft 306 kts 63°
2026-05-07 19:47 34.99365 -116.51154 21019 ft 306 kts 62°
2026-05-07 19:48 35.00286 -116.48846 21028 ft 305 kts 61°
2026-05-07 19:48 35.01236 -116.46538 21017 ft 305 kts 60°
2026-05-07 19:48 35.02208 -116.44224 21013 ft 305 kts 60°
2026-05-07 19:48 35.03184 -116.41924 21016 ft 305 kts 60°
2026-05-07 19:49 35.04159 -116.39646 21020 ft 305 kts 59°
2026-05-07 19:49 35.05146 -116.37350 21023 ft 305 kts 59°
2026-05-07 19:49 35.06128 -116.35068 21014 ft 305 kts 59°
2026-05-07 19:49 35.07096 -116.32759 21021 ft 305 kts 60°
2026-05-07 19:50 35.08079 -116.30418 21020 ft 305 kts 60°
2026-05-07 19:50 35.09060 -116.28109 21022 ft 305 kts 60°
2026-05-07 19:50 35.10039 -116.25814 21012 ft 306 kts 60°
2026-05-07 19:50 35.11065 -116.23500 21032 ft 305 kts 59°
2026-05-07 19:51 35.12087 -116.21180 21033 ft 306 kts 59°
2026-05-07 19:51 35.13080 -116.18904 21026 ft 306 kts 59°
2026-05-07 19:51 35.14084 -116.16591 21024 ft 306 kts 59°
2026-05-07 19:51 35.15075 -116.14298 21021 ft 307 kts 59°
2026-05-07 19:52 35.16077 -116.11973 21019 ft 307 kts 59°
2026-05-07 19:52 35.17067 -116.09676 21016 ft 307 kts 60°
2026-05-07 19:52 35.18060 -116.07363 21016 ft 307 kts 59°
2026-05-07 19:52 35.19054 -116.05048 20973 ft 308 kts 60°
2026-05-07 19:53 35.20054 -116.02717 20575 ft 313 kts 60°
2026-05-07 19:53 35.21063 -116.00362 20193 ft 313 kts 60°
2026-05-07 19:53 35.22066 -115.98014 19827 ft 313 kts 60°
2026-05-07 19:53 35.23077 -115.95651 19458 ft 313 kts 60°
2026-05-07 19:54 35.24079 -115.93306 19099 ft 312 kts 60°
2026-05-07 19:54 35.25084 -115.90951 18730 ft 312 kts 60°
2026-05-07 19:54 35.26096 -115.88595 18360 ft 310 kts 58°
2026-05-07 19:54 35.27147 -115.86330 17991 ft 310 kts 62°
2026-05-07 19:55 35.28067 -115.83947 17640 ft 308 kts 62°
2026-05-07 19:55 35.29166 -115.81755 17231 ft 306 kts 47°
2026-05-07 19:55 35.30593 -115.79831 16906 ft 304 kts 46°
2026-05-07 19:55 35.32022 -115.77920 16518 ft 305 kts 46°
2026-05-07 19:56 35.33468 -115.75996 16203 ft 306 kts 46°
2026-05-07 19:56 35.34913 -115.74069 15940 ft 308 kts 47°
2026-05-07 19:56 35.36351 -115.72150 15702 ft 311 kts 47°
2026-05-07 19:56 35.37824 -115.70179 15505 ft 314 kts 47°
2026-05-07 19:57 35.39308 -115.68192 15178 ft 316 kts 47°
2026-05-07 19:57 35.40776 -115.66225 14763 ft 311 kts 47°
2026-05-07 19:57 35.42231 -115.64273 14348 ft 307 kts 47°
2026-05-07 19:57 35.43655 -115.62363 13938 ft 303 kts 47°
2026-05-07 19:58 35.45075 -115.60456 13437 ft 299 kts 47°
2026-05-07 19:58 35.46464 -115.58590 12919 ft 295 kts 47°
2026-05-07 19:58 35.47826 -115.56759 12423 ft 292 kts 47°
2026-05-07 19:58 35.49187 -115.54929 11933 ft 288 kts 47°
2026-05-07 19:59 35.50523 -115.53131 11529 ft 284 kts 46°
2026-05-07 19:59 35.51850 -115.51345 11164 ft 282 kts 47°
2026-05-07 19:59 35.53154 -115.49590 11054 ft 275 kts 47°
2026-05-07 19:59 35.54328 -115.48009 11027 ft 273 kts 47°
2026-05-07 20:00 35.55339 -115.46647 11022 ft 273 kts 47°
2026-05-07 20:00 35.57790 -115.43343 11025 ft 273 kts 47°
2026-05-07 20:00 35.59317 -115.41282 11029 ft 273 kts 47°
2026-05-07 20:01 35.60580 -115.39576 11030 ft 273 kts 47°
2026-05-07 20:01 35.61871 -115.37832 11033 ft 272 kts 47°
2026-05-07 20:01 35.63151 -115.36103 11035 ft 272 kts 47°
2026-05-07 20:01 35.64433 -115.34363 11037 ft 272 kts 48°
2026-05-07 20:02 35.65682 -115.32632 11046 ft 271 kts 48°
2026-05-07 20:02 35.66971 -115.30860 11042 ft 272 kts 47°
2026-05-07 20:02 35.68229 -115.29138 11034 ft 272 kts 47°
2026-05-07 20:02 35.69514 -115.27386 11034 ft 272 kts 47°
2026-05-07 20:03 35.70785 -115.25656 11022 ft 273 kts 47°
2026-05-07 20:03 35.72085 -115.23892 11012 ft 274 kts 47°
2026-05-07 20:03 35.73365 -115.22155 11005 ft 275 kts 47°
2026-05-07 20:03 35.74651 -115.20406 10997 ft 275 kts 47°
2026-05-07 20:04 35.75928 -115.18668 10990 ft 275 kts 47°
2026-05-07 20:04 35.77223 -115.16907 10983 ft 276 kts 47°
2026-05-07 20:04 35.78493 -115.15177 10978 ft 276 kts 47°
2026-05-07 20:04 35.79792 -115.13409 10943 ft 277 kts 47°
2026-05-07 20:05 35.81078 -115.11661 10681 ft 274 kts 47°
2026-05-07 20:05 35.82342 -115.09943 10434 ft 269 kts 47°
2026-05-07 20:05 35.83588 -115.08245 10190 ft 265 kts 47°
2026-05-07 20:05 35.84822 -115.06563 9945 ft 261 kts 47°
2026-05-07 20:06 35.86031 -115.04915 9700 ft 259 kts 47°
2026-05-07 20:06 35.87234 -115.03275 9453 ft 257 kts 47°
2026-05-07 20:06 35.88434 -115.01637 9206 ft 255 kts 47°
2026-05-07 20:06 35.89624 -115.00013 8963 ft 254 kts 47°
2026-05-07 20:07 35.90812 -114.98392 8720 ft 253 kts 47°
2026-05-07 20:07 35.91980 -114.96788 8480 ft 253 kts 49°
2026-05-07 20:07 35.92997 -114.95023 8245 ft 253 kts 55°
2026-05-07 20:07 35.93982 -114.93221 8005 ft 253 kts 55°
2026-05-07 20:08 35.94988 -114.91380 7763 ft 253 kts 55°
2026-05-07 20:08 35.95981 -114.89567 7526 ft 253 kts 55°
2026-05-07 20:08 35.96971 -114.87762 7289 ft 253 kts 55°
2026-05-07 20:08 35.97955 -114.85970 7055 ft 253 kts 55°
2026-05-07 20:09 35.98983 -114.84238 6940 ft 247 kts 44°
2026-05-07 20:09 36.00447 -114.83209 6809 ft 246 kts 14°
2026-05-07 20:09 36.02167 -114.83040 6669 ft 249 kts
2026-05-07 20:10 36.05711 -114.82950 6358 ft 255 kts
2026-05-07 20:10 36.07497 -114.82903 6202 ft 258 kts
2026-05-07 20:10 36.09286 -114.82855 6045 ft 260 kts
2026-05-07 20:10 36.11108 -114.82832 5961 ft 258 kts 356°
2026-05-07 20:11 36.12772 -114.83554 5950 ft 253 kts 325°
2026-05-07 20:11 36.13896 -114.85206 5956 ft 249 kts 295°
2026-05-07 20:11 36.14203 -114.87181 5965 ft 246 kts 272°
2026-05-07 20:11 36.14229 -114.89362 5962 ft 246 kts 271°
2026-05-07 20:12 36.14250 -114.91472 5962 ft 246 kts 271°
2026-05-07 20:12 36.14271 -114.93588 5967 ft 246 kts 271°
2026-05-07 20:12 36.14292 -114.95695 5972 ft 246 kts 271°
2026-05-07 20:12 36.14314 -114.97819 5973 ft 246 kts 271°
2026-05-07 20:13 36.14340 -114.99959 5902 ft 249 kts 272°
2026-05-07 20:13 36.14391 -115.02087 5736 ft 241 kts 272°
2026-05-07 20:13 36.14444 -115.04119 5423 ft 233 kts 272°
2026-05-07 20:13 36.14487 -115.06074 5095 ft 228 kts 272°
2026-05-07 20:14 36.14532 -115.08009 4847 ft 216 kts 272°
2026-05-07 20:14 36.14568 -115.09789 4604 ft 198 kts 271°
2026-05-07 20:14 36.14602 -115.11414 4177 ft 180 kts 271°
2026-05-07 20:14 36.14332 -115.12812 3835 ft 158 kts 242°
2026-05-07 20:15 36.13584 -115.13750 3332 ft 156 kts 206°
2026-05-07 20:15 36.12572 -115.14212 2964 ft 154 kts 199°
2026-05-07 20:15 36.11605 -115.14683 2603 ft 146 kts 205°
2026-05-07 20:15 36.10715 -115.15208 2339 ft 138 kts 205°
2026-05-07 20:16 36.09864 -115.15698 2146 ft 130 kts 206°
2026-05-07 20:16 36.09127 -115.16120 2134 ft 95 kts 207°
2026-05-07 20:16 36.08698 -115.16370 2153 ft 43 kts 208°
2026-05-07 20:16 36.08493 -115.16515 2163 ft 31 kts 215°
2026-05-07 20:17 36.08353 -115.16698 2171 ft 17 kts 226°
2026-05-07 20:17 36.08317 -115.16734 2172 ft 3 kts 210°
2026-05-07 20:17 36.08288 -115.16756 2174 ft 7 kts 222°
2026-05-07 20:17 36.08283 -115.16841 2175 ft 14 kts 313°
2026-05-07 20:18 36.08387 -115.16790 2171 ft 20 kts 25°
2026-05-07 20:18 36.08517 -115.16715 2167 ft 13 kts 26°
2026-05-07 20:18 36.08554 -115.16750 2166 ft 4 kts 290°
2026-05-07 20:18 36.08547 -115.16786 2167 ft 6 kts 217°
2026-05-07 20:19 36.08495 -115.16824 2169 ft 10 kts 233°
2026-05-07 20:19 36.08482 -115.16893 2171 ft 2 kts 264°
2026-05-07 20:19 36.08482 -115.16897 2171 ft 0 kts 264°